COSMOS 2251 DEB, 40803

Orbit data source: Space-Track

COSMOS 2251 DEB, 40803 is space debris in LEO originally from a launch on Wed, 16 Jun 1993 UTC launched from the Plesetsk Missile And Space Complex (PKMTR). The debris from Iridium 33, an American commercial communications satellite, has been tracked extensively since its accidental collision with the defunct Russian satellite Cosmos 2251 in 2009. This event, occurring at high speed in low Earth orbit (LEO), generated thousands of pieces of space debris, significantly increasing the risk of further collisions. The Iridium 33 debris cloud has impacted space traffic management and orbital debris mitigation strategies, making it a subject of ongoing study in space situational awareness.

Loading next visibility...
Identifier
40803, 1993-036BWG
Orbit
LEO
Last TLE update
5 days ago
Origin
Manufacturer
Unknown
Mission
Spacecraft
Bus & Motor
Unknown
Mass
Unknown
Launch date (UTC)
1993-06-16 (32 years ago)
Launch vehicle
Unknown
Launch site
Plesetsk Missile And Space Complex (PKMTR)
Object type
Payload
Rocket body
Debris
Shape & HBR
Unknown
Radar Cross Section
Small (<0.1 m²)

Expand to show TLE details & history

TLE from 5 days ago
0 COSMOS 2251 DEB
1 40803U 93036BWG 25123.94354054  .00002174  00000-0  55098-3 0  9997
2 40803  74.0127 111.8166 0032406  18.8347 341.4005 14.51170905555205
Epoch: 2025-05-03T22:38Z
Definitive object data (Epoch: 2025-05-03T22:38:41.902Z)
Latitude
0.00005°
Longitude
-89.93652°
Altitude
702.652 km
Speed
7.516 km/s
True Right ascension
07h 27m 15s
True Declination
0° 00' 00"
Sunlit
Object was in daylight at TLE epoch
Visualization TLE readout
Latitude
41.24547°
Longitude
65.54722°
Altitude
741.913 km
Speed
7.48 km/s
Apparent Right ascension
21h 54m 17s
Apparent Declination
8° 38' 40"
Sunlit
Object is in daylight
Visualization observer readout
Local Sidereal Time
14:48:55
Azimuth
72.794° E
Elevation
-6.714°
Doppler factor
1
Orbital elements
Apogee altitude
742.436 km
Perigee altitude
696.436 km
Semi-major axis
7,097.573 km
Eccentricity
0.0032406
Inclination
74.0127°
RAAN
111.8166°
Arg. of periapsis
18.8347°
True anomaly
341.2816°
Mean anomaly
341.4005°
Eccentric anomaly
341.3411°
Mean motion
3.62976 °/min
BSTAR
0.00055098
Orbital period
99.18 mins
Loading maneuver chart data...
Loading SW <> Apogee altitude chart data...

COSMOS 2251 DEB Visibility forecast

Observer location: undefined°, undefined°

Span
Click to sort rows by Start time (UTC) header in descending order
Start Az.
Max El. time (UTC)
Max El. Az.
Max El.
End time (UTC)
End Az.
5 mins2025-05-09 08:15:03.244Z22.534° NE2025-05-09 08:18:03.244Z61.521° ENE15.744°2025-05-09 08:20:03.244Z87.499° E
8 mins2025-05-09 09:56:03.244Z328.43° NNW2025-05-09 09:59:03.244Z265.95° W41.029°2025-05-09 10:04:03.244Z175.874° S
7 mins2025-05-09 22:43:03.244Z157.722° S2025-05-09 22:46:03.244Z101.5° ESE30.321°2025-05-09 22:50:03.244Z38.65° NE
6 mins2025-05-10 00:25:03.244Z263.122° W2025-05-10 00:27:03.244Z296.697° NW22.037°2025-05-10 00:31:03.244Z352.461° N
|